(110) Lydia
ephemeris date magn radius delta ra dec elong phase
Today25 Aug 202613.32.681 AU2.837 AU05h19m+23°23'70.9°20.9°
Opposition16 Dec 202611.52.774 AU1.792 AU05h35m+27°37'175.7°1.5°
(110) Lydia - 2026-08-25
astro.vanbuitenen.nl


 
-1 year
-1 month
-1 day
Now
+1 day
+1 month
+1 year

The interactive orbit chart above shows the body's path through the solar system and its position at the given date. Green and blue lines are shown perpendicular to the ecliptic plane: Green if the path is above the ecliptic plane, blue if it is below. (Left-click and drag to rotate the view; Right-click and drag to move the view; Use scroll wheel to zoom in our out.)

The orbital elements of Lydia are:

            e (Eccentricity)                : 0.0789471
            a (Semimajor axis)              : 2.7322376
            i (Inclination)                 : 5.95969
            Ω (Longitude of ascending node) : 56.76090
            ω (Argument of perihelion)      : 282.20049
            M (Mean anomaly)                : 55.15420
            Epoch                           : 2026 Jun 09

            L (Longitude of perihelion)     : -20.97431
            B (Latitude of perihelion)      : -5.82461
            P (Orbital period in years)     : 4.52            
        

The light curve chart below shows the estimated development of the minor planet's magnitude.


The all-sky chart below shows the path of the minor planet over the same period as the light curve. The current position is marked yellow.





The following chart shows the path of the minor planet in the next few days. The field of view is optimized for (~10x50) binoculars and finderscopes.




Ephemerides:
Date       Time       RA (2000)    DEC (2000)    delta   radius  elong  phase   PA    magn
2026-08-25 00:00 UT   05 19 00.5   +23 23 55     2.837    2.681   70.9   20.9   266   13.3 
2026-08-25 19:42 UT   05 20 04.3   +23 26 06     2.827    2.682   71.4   20.9   266   13.3 
2026-08-26 00:00 UT   05 20 18.2   +23 26 35     2.825    2.682   71.5   20.9   266   13.3 
2026-08-27 00:00 UT   05 21 35.3   +23 29 12     2.814    2.683   72.2   21.0   266   13.3 
2026-08-28 00:00 UT   05 22 51.7   +23 31 47     2.802    2.684   72.9   21.1   266   13.2 
2026-08-29 00:00 UT   05 24 07.4   +23 34 20     2.790    2.685   73.5   21.1   267   13.2 
2026-08-30 00:00 UT   05 25 22.4   +23 36 51     2.778    2.685   74.2   21.2   267   13.2 
2026-08-31 00:00 UT   05 26 36.6   +23 39 20     2.766    2.686   74.9   21.3   267   13.2 
2026-09-01 00:00 UT   05 27 50.2   +23 41 47     2.754    2.687   75.6   21.3   267   13.2 
2026-09-02 00:00 UT   05 29 02.9   +23 44 11     2.742    2.688   76.3   21.4   267   13.2 
2026-09-03 00:00 UT   05 30 14.9   +23 46 34     2.730    2.689   77.0   21.4   267   13.2 
2026-09-04 00:00 UT   05 31 26.0   +23 48 55     2.718    2.690   77.7   21.5   267   13.2 
2026-09-05 00:00 UT   05 32 36.4   +23 51 15     2.706    2.690   78.4   21.5   267   13.2 
2026-09-06 00:00 UT   05 33 45.9   +23 53 32     2.694    2.691   79.1   21.6   268   13.2 
2026-09-07 00:00 UT   05 34 54.6   +23 55 48     2.682    2.692   79.8   21.6   268   13.2 
2026-09-08 00:00 UT   05 36 02.4   +23 58 03     2.669    2.693   80.5   21.7   268   13.2 
2026-09-09 00:00 UT   05 37 09.4   +24 00 16     2.657    2.694   81.2   21.7   268   13.2 
2026-09-10 00:00 UT   05 38 15.4   +24 02 28     2.645    2.694   81.9   21.7   268   13.1 
2026-09-11 00:00 UT   05 39 20.5   +24 04 38     2.632    2.695   82.6   21.7   268   13.1 
2026-09-12 00:00 UT   05 40 24.7   +24 06 47     2.620    2.696   83.4   21.8   268   13.1 
2026-09-13 00:00 UT   05 41 27.9   +24 08 55     2.608    2.697   84.1   21.8   268   13.1 
2026-09-14 00:00 UT   05 42 30.2   +24 11 02     2.595    2.698   84.8   21.8   268   13.1 
2026-09-15 00:00 UT   05 43 31.4   +24 13 08     2.583    2.699   85.6   21.8   268   13.1 
2026-09-16 00:00 UT   05 44 31.7   +24 15 13     2.570    2.699   86.3   21.8   269   13.1 
2026-09-17 00:00 UT   05 45 31.0   +24 17 18     2.558    2.700   87.1   21.8   269   13.1 
2026-09-18 00:00 UT   05 46 29.2   +24 19 21     2.546    2.701   87.8   21.8   269   13.1 
2026-09-19 00:00 UT   05 47 26.3   +24 21 24     2.533    2.702   88.6   21.8   269   13.1 
2026-09-20 00:00 UT   05 48 22.4   +24 23 26     2.521    2.703   89.3   21.8   269   13.1 
2026-09-21 00:00 UT   05 49 17.4   +24 25 28     2.508    2.703   90.1   21.8   269   13.0 
2026-09-22 00:00 UT   05 50 11.3   +24 27 30     2.496    2.704   90.9   21.8   269   13.0 
2026-09-23 00:00 UT   05 51 04.1   +24 29 31     2.483    2.705   91.7   21.8   269   13.0 
2026-09-24 00:00 UT   05 51 55.8   +24 31 31     2.471    2.706   92.4   21.7   269   13.0 


    Terminology:
            
    delta:  distance between minor planet and earth in AU
    radius: distance between minor planet and sun in AU
    magn:   magnitude (brightness) estimate    
    ra:     right ascension in hours (24h = 360deg)
    dec:    declination in degrees
    elong:  elongation in degrees (angle sun-earth-minor planet)    
    phase:  phase angle in degrees (angle sun-minor planet-earth)        
    AU:     Astronomical Unit (mean distance between earth and sun: 149597870.7 km
    

Orbital elements provided by the MPC (Minor Planet Center).
Calculations by a modified version of AAPlus, a C# implementation of the AA+ project by PJ Naughter from the algorithms presented in the book "Astronomical Algorithms" by Jean Meeus.
NGC2000 dso catalog and star labels from VizieR as provided by the Strasbourg astronomical Data Center.
Tycho2 catalog from the ESO archive.